Погода в Равалакоте

Пакистан     33°52′00″N   73°46′00″E
темп.,
°C
ветер,
м/с
пор.,
м/с
влажн.,
%
обл.,
%
осадки,
мм/ч
давл.,
гПа
погр.,
м
21 апреля, ср
ср2123:00+11ссв4683100 1.7 1013207
02:00+11ссв4478100 1.2 1013129
05:00+10ссв3383100 2.5 1013147
08:00+14ссз2263100 0.2 1012411
11:00+17ююз325457 0.3 10121378
14:00+18ююз234896 0.5 10111645
17:00+15в2265100 0.9 101151
20:00+12св22721 0.0 101217
22 апреля, чт
чт2223:00+12св22680 0.0 101212
02:00+11св22682 0.0 101213
05:00+11всв227552 0.5 101227
08:00+13в1274100 3.2 101498
11:00+14юв3369100 7.3 1015491
14:00+16в226299 3.9 1013590
17:00+16вюв126046 6.1 1011192
20:00+11с4486100 6.0 101275
23 апреля, пт
пт2323:00+10ссв5685100 11.0 1014150
02:00+10всв337496 0.6 101246
05:00+11всв2270100 0.6 101216
08:00+12зсз1171100 0.1 1014137
11:00+16ссв2351100 0.3 1013959
14:00+18всв2346100 0.6 10111705
17:00+16ссв34492 0.8 1009828
20:00+11ссв446545 0.0 101053
24 апреля, сб
сб2423:00+11ссв2257100 0.0 101219
02:00+11св3359100 0.0 101231
05:00+11ссв335999 0.0 101229
08:00+17св22450 0.0 1013215
11:00+21ю22320 0.0 10141579
14:00+23ююз32312 0.0 10132222
17:00+22зюз22342 0.0 10121413
20:00+16ссв33485 0.0 101416
25 апреля, вс
вс2523:00+14ссв334369 0.0 101525
02:00+14ссв434262 0.0 101427
05:00+13св434255 0.0 101426
08:00+19ссв224085 0.0 1015140
11:00+24юз112240 0.0 10131435
14:00+25ююз22210 0.0 10112173
17:00+25ю11260 0.0 10101441
20:00+18ссв323786 0.0 101214